Weather History for PABI - April, 2013

Change the Weather History Date:

Sunday, April 21, 2013

  Actual Average Record
Temperature  
Mean Temperature 30 °F -  
Max Temperature 42 °F 45 °F 60 °F (2008)
Min Temperature 17 °F 25 °F 14 °F (1997)
Degree Days  
Heating Degree Days 36    
Moisture  
Dew Point 7 °F    
Average Humidity 36    
Maximum Humidity 54    
Minimum Humidity 13    
Precipitation  
Precipitation 0.00 in - - ()
Sea Level Pressure  
Sea Level Pressure 30.41 in    
Wind  
Wind Speed 9 mph (SSW)    
Max Wind Speed 15 mph    
Max Gust Speed -    
Visibility 10 miles    
Events      
Averages and records for this station are not official NWS values.
T = Trace of Precipitation, MM = Missing Value Source: NWS Daily Summary

Daily Weather History Graph

Daily Weather History Graph

Search for Another Location

Airport or City:

Trip Planner

Search our weather history database for the weather conditions in past years. The results will help you decide how hot, cold, wet, or windy it might be!

Date:

Astronomy

Apr. 21, 2013 Rise Set
Actual Time 5:49 AM AKDT 9:35 PM AKDT
Civil Twilight 4:50 AM AKDT 10:35 PM AKDT
Nautical Twilight 3:13 AM AKDT 12:16 AM AKDT
Astronomical Twilight Sun does not set Sun does not set
Moon 4:11 PM AKDT (4/21) 4:45 AM AKDT (4/21)
Length of Visible Light 17h 45m
Length of Day
15h 46m
Waxing Gibbous, 81% of the Moon is Illuminated
Apr 21
Waxing Gibbous
Apr 25
Full
May 2
Last Quarter
May 9
New
May 17
First Quarter

Hourly Weather History & Observations

Time (AKDT) Temp. Windchill Dew Point Humidity Pressure Visibility Wind Dir Wind Speed Gust Speed Precip Events Conditions
12:53 AM 28.0 °F 17.5 °F 7.0 °F 41% 30.40 in 10.0 mi SW 12.7 mph - N/A   Clear
1:53 AM 26.1 °F 14.0 °F 7.0 °F 44% 30.40 in 10.0 mi SW 15.0 mph - N/A   Clear
2:53 AM 24.1 °F 12.0 °F 7.0 °F 48% 30.40 in 10.0 mi SW 13.8 mph - N/A   Clear
3:53 AM 23.0 °F 11.1 °F 6.1 °F 48% 30.40 in 10.0 mi SW 12.7 mph - N/A   Clear
4:53 AM 21.9 °F 10.4 °F 5.0 °F 48% 30.40 in 10.0 mi SSW 11.5 mph - N/A   Clear
5:53 AM 18.0 °F - 3.9 °F 54% 30.41 in 10.0 mi Calm Calm - N/A   Scattered Clouds
6:53 AM 19.9 °F 12.1 °F 3.9 °F 50% 30.42 in 10.0 mi SE 5.8 mph - N/A   Scattered Clouds
7:53 AM 21.0 °F 13.4 °F 5.0 °F 50% 30.42 in 10.0 mi SE 5.8 mph - N/A   Scattered Clouds
8:53 AM 24.1 °F 18.2 °F 5.0 °F 44% 30.42 in 10.0 mi East 4.6 mph - N/A   Scattered Clouds
9:53 AM 28.0 °F 21.7 °F 7.0 °F 41% 30.41 in 10.0 mi ESE 5.8 mph - N/A   Scattered Clouds
10:53 AM 34.0 °F - 6.1 °F 31% 30.40 in 10.0 mi Calm Calm - N/A   Scattered Clouds
11:53 AM 39.0 °F - 6.1 °F 26% 30.40 in 10.0 mi Calm Calm - N/A   Scattered Clouds
12:53 PM 37.9 °F 35.5 °F 5.0 °F 25% 30.41 in 10.0 mi ESE 3.5 mph - N/A   Scattered Clouds
1:53 PM 39.0 °F 36.8 °F 3.9 °F 23% 30.41 in 10.0 mi South 3.5 mph - N/A   Scattered Clouds
2:53 PM 39.9 °F 33.9 °F 6.1 °F 25% 30.40 in 10.0 mi SSE 9.2 mph - N/A   Scattered Clouds
3:53 PM 39.9 °F 34.5 °F 6.1 °F 25% 30.40 in 10.0 mi South 8.1 mph - N/A   Scattered Clouds
4:53 PM 41.0 °F 37.1 °F 7.0 °F 25% 30.39 in 10.0 mi WSW 5.8 mph - N/A   Scattered Clouds
5:53 PM 41.0 °F 37.1 °F 7.0 °F 25% 30.39 in 10.0 mi SW 5.8 mph - N/A   Partly Cloudy
6:53 PM 41.0 °F 36.4 °F 7.0 °F 25% 30.39 in 10.0 mi SW 6.9 mph - N/A   Partly Cloudy
7:53 PM 39.0 °F 33.4 °F 10.0 °F 30% 30.39 in 10.0 mi WSW 8.1 mph - N/A   Partly Cloudy
8:53 PM 36.0 °F 28.5 °F 12.0 °F 37% 30.40 in 10.0 mi SW 10.4 mph - N/A   Clear
9:53 PM 30.9 °F 22.8 °F 12.9 °F 47% 30.42 in 10.0 mi SW 9.2 mph - N/A   Clear
10:53 PM 28.0 °F 18.6 °F 12.0 °F 51% 30.43 in 10.0 mi SW 10.4 mph - N/A   Clear
11:53 PM 27.0 °F 18.7 °F 10.9 °F 51% 30.43 in 10.0 mi SSW 8.1 mph - N/A   Clear